PRIVATE WETTERSTATION BILLIGHEIM-ALLFELD                       ZURCK
Wetterdaten: Montag, 30.10.2017
Datum Zeit Temp. A. Temp. A. min Temp. A. max Feuchte A. Luftdruck Regen Wind Richtung Richtung Sonnenschein ET Solar Taupunkt Windchill Windben Empfang
30.10.2017 00:00 3,9 C 3,9 C 4,0 C 89 % 1019,8 hPa 0,0 l/m 0,0 km/h (0 Bft) N 0 0 min 0,000 mm 0 W/m 2,3 C 3,9 C 0,0 km/h (0 Bft) 100 %
30.10.2017 00:10 3,8 C 3,8 C 3,9 C 89 % 1019,9 hPa 0,0 l/m 0,0 km/h (0 Bft) N 0 0 min 0,000 mm 0 W/m 2,2 C 3,8 C 0,0 km/h (0 Bft) 100 %
30.10.2017 00:20 3,8 C 3,8 C 3,8 C 89 % 1019,9 hPa 0,0 l/m 0,0 km/h (0 Bft) N 0 0 min 0,000 mm 0 W/m 2,2 C 3,8 C 0,0 km/h (0 Bft) 100 %
30.10.2017 00:30 3,6 C 3,6 C 3,8 C 89 % 1019,8 hPa 0,0 l/m 0,0 km/h (0 Bft) N 0 0 min 0,000 mm 0 W/m 2,0 C 3,6 C 0,0 km/h (0 Bft) 100 %
30.10.2017 00:40 3,4 C 3,4 C 3,6 C 90 % 1019,9 hPa 0,0 l/m 0,0 km/h (0 Bft) N 0 0 min 0,000 mm 0 W/m 1,9 C 3,4 C 0,0 km/h (0 Bft) 100 %
30.10.2017 00:50 3,4 C 3,3 C 3,4 C 90 % 1019,9 hPa 0,0 l/m 0,0 km/h (0 Bft) N 0 0 min 0,000 mm 0 W/m 1,9 C 3,4 C 0,0 km/h (0 Bft) 100 %
30.10.2017 01:00 3,4 C 3,4 C 3,5 C 90 % 1020,0 hPa 0,0 l/m 0,0 km/h (0 Bft) N 0 0 min 0,000 mm 0 W/m 1,9 C 3,4 C 0,0 km/h (0 Bft) 100 %
30.10.2017 01:10 3,4 C 3,4 C 3,5 C 90 % 1020,0 hPa 0,0 l/m 0,0 km/h (0 Bft) N 0 0 min 0,000 mm 0 W/m 1,9 C 3,4 C 0,0 km/h (0 Bft) 100 %
30.10.2017 01:20 3,6 C 3,4 C 3,6 C 90 % 1020,1 hPa 0,0 l/m 0,0 km/h (0 Bft) N 0 0 min 0,000 mm 0 W/m 2,1 C 3,6 C 0,0 km/h (0 Bft) 100 %
30.10.2017 01:30 3,6 C 3,6 C 3,6 C 90 % 1020,1 hPa 0,0 l/m 0,0 km/h (0 Bft) N 0 0 min 0,000 mm 0 W/m 2,1 C 3,6 C 0,0 km/h (0 Bft) 100 %
30.10.2017 01:40 3,6 C 3,6 C 3,6 C 90 % 1020,2 hPa 0,0 l/m 0,0 km/h (0 Bft) N 0 0 min 0,000 mm 0 W/m 2,1 C 3,6 C 0,0 km/h (0 Bft) 99 %
30.10.2017 01:50 3,6 C 3,6 C 3,6 C 90 % 1020,2 hPa 0,0 l/m 0,0 km/h (0 Bft) N 0 0 min 0,000 mm 0 W/m 2,1 C 3,6 C 0,0 km/h (0 Bft) 100 %
30.10.2017 02:00 3,4 C 3,4 C 3,6 C 90 % 1020,2 hPa 0,0 l/m 0,0 km/h (0 Bft) N 0 0 min 0,000 mm 0 W/m 1,9 C 3,4 C 0,0 km/h (0 Bft) 100 %
30.10.2017 02:10 3,3 C 3,3 C 3,4 C 90 % 1020,4 hPa 0,0 l/m 0,0 km/h (0 Bft) N 0 0 min 0,000 mm 0 W/m 1,8 C 3,3 C 0,0 km/h (0 Bft) 100 %
30.10.2017 02:20 3,2 C 3,2 C 3,3 C 90 % 1020,3 hPa 0,0 l/m 0,0 km/h (0 Bft) N 0 0 min 0,000 mm 0 W/m 1,7 C 3,2 C 0,0 km/h (0 Bft) 100 %
30.10.2017 02:30 3,1 C 3,1 C 3,2 C 90 % 1020,3 hPa 0,0 l/m 0,0 km/h (0 Bft) N 0 0 min 0,000 mm 0 W/m 1,6 C 3,1 C 0,0 km/h (0 Bft) 100 %
30.10.2017 02:40 3,1 C 3,1 C 3,1 C 90 % 1020,5 hPa 0,0 l/m 0,0 km/h (0 Bft) N 0 0 min 0,000 mm 0 W/m 1,6 C 3,1 C 0,0 km/h (0 Bft) 100 %
30.10.2017 02:50 2,9 C 2,9 C 3,1 C 90 % 1020,6 hPa 0,0 l/m 0,0 km/h (0 Bft) N 0 0 min 0,000 mm 0 W/m 1,4 C 2,9 C 0,0 km/h (0 Bft) 99 %
30.10.2017 03:00 2,8 C 2,8 C 2,9 C 90 % 1020,7 hPa 0,0 l/m 0,0 km/h (0 Bft) N 0 0 min 0,000 mm 0 W/m 1,3 C 2,8 C 0,0 km/h (0 Bft) 99 %
30.10.2017 03:10 2,8 C 2,8 C 2,8 C 90 % 1020,7 hPa 0,0 l/m 0,0 km/h (0 Bft) N 0 0 min 0,000 mm 0 W/m 1,3 C 2,8 C 0,0 km/h (0 Bft) 99 %
30.10.2017 03:20 2,7 C 2,7 C 2,8 C 90 % 1020,9 hPa 0,0 l/m 0,0 km/h (0 Bft) N 0 0 min 0,000 mm 0 W/m 1,2 C 2,7 C 0,0 km/h (0 Bft) 100 %
30.10.2017 03:30 2,6 C 2,6 C 2,7 C 90 % 1021,0 hPa 0,0 l/m 0,0 km/h (0 Bft) O 90 0 min 0,000 mm 0 W/m 1,1 C 2,6 C 1,6 km/h (1 Bft) 100 %
30.10.2017 03:40 2,6 C 2,6 C 2,6 C 90 % 1020,9 hPa 0,0 l/m 0,0 km/h (0 Bft) N 0 0 min 0,000 mm 0 W/m 1,1 C 2,6 C 0,0 km/h (0 Bft) 100 %
30.10.2017 03:50 2,5 C 2,5 C 2,6 C 90 % 1020,9 hPa 0,0 l/m 0,0 km/h (0 Bft) N 0 0 min 0,000 mm 0 W/m 1,0 C 2,5 C 0,0 km/h (0 Bft) 99 %
30.10.2017 04:00 2,4 C 2,4 C 2,5 C 90 % 1021,1 hPa 0,0 l/m 0,0 km/h (0 Bft) N 0 0 min 0,000 mm 0 W/m 0,9 C 2,4 C 0,0 km/h (0 Bft) 100 %
30.10.2017 04:10 2,5 C 2,4 C 2,5 C 90 % 1021,1 hPa 0,0 l/m 0,0 km/h (0 Bft) N 0 0 min 0,000 mm 0 W/m 1,0 C 2,5 C 0,0 km/h (0 Bft) 100 %
30.10.2017 04:20 2,5 C 2,5 C 2,5 C 90 % 1021,3 hPa 0,0 l/m 0,0 km/h (0 Bft) N 0 0 min 0,000 mm 0 W/m 1,0 C 2,5 C 0,0 km/h (0 Bft) 100 %
30.10.2017 04:30 2,5 C 2,5 C 2,6 C 90 % 1021,3 hPa 0,0 l/m 0,0 km/h (0 Bft) N 0 0 min 0,000 mm 0 W/m 1,0 C 2,5 C 0,0 km/h (0 Bft) 99 %
30.10.2017 04:40 2,5 C 2,5 C 2,5 C 90 % 1021,3 hPa 0,0 l/m 0,0 km/h (0 Bft) N 0 0 min 0,000 mm 0 W/m 1,0 C 2,5 C 0,0 km/h (0 Bft) 100 %
30.10.2017 04:50 2,5 C 2,5 C 2,6 C 90 % 1021,4 hPa 0,0 l/m 0,0 km/h (0 Bft) N 0 0 min 0,000 mm 0 W/m 1,0 C 2,5 C 0,0 km/h (0 Bft) 100 %
30.10.2017 05:00 2,2 C 2,2 C 2,5 C 90 % 1021,5 hPa 0,0 l/m 0,0 km/h (0 Bft) N 0 0 min 0,000 mm 0 W/m 0,7 C 2,2 C 0,0 km/h (0 Bft) 100 %
30.10.2017 05:10 1,9 C 1,9 C 2,2 C 90 % 1021,6 hPa 0,0 l/m 0,0 km/h (0 Bft) N 0 0 min 0,000 mm 0 W/m 0,4 C 1,9 C 0,0 km/h (0 Bft) 100 %
30.10.2017 05:20 1,7 C 1,7 C 1,9 C 90 % 1021,7 hPa 0,0 l/m 0,0 km/h (0 Bft) N 0 0 min 0,000 mm 0 W/m 0,2 C 1,7 C 0,0 km/h (0 Bft) 100 %
30.10.2017 05:30 1,8 C 1,7 C 1,9 C 90 % 1021,8 hPa 0,0 l/m 0,0 km/h (0 Bft) O-SO 112 0 min 0,000 mm 0 W/m 0,3 C 1,8 C 1,6 km/h (1 Bft) 100 %
30.10.2017 05:40 1,7 C 1,7 C 1,8 C 90 % 1021,8 hPa 0,0 l/m 0,0 km/h (0 Bft) N 0 0 min 0,000 mm 0 W/m 0,2 C 1,7 C 0,0 km/h (0 Bft) 100 %
30.10.2017 05:50 1,7 C 1,7 C 1,8 C 90 % 1021,9 hPa 0,0 l/m 0,0 km/h (0 Bft) N 0 0 min 0,000 mm 0 W/m 0,2 C 1,7 C 0,0 km/h (0 Bft) 100 %
30.10.2017 06:00 1,8 C 1,7 C 1,8 C 90 % 1022,1 hPa 0,0 l/m 0,0 km/h (0 Bft) N 0 0 min 0,000 mm 0 W/m 0,3 C 1,8 C 0,0 km/h (0 Bft) 99 %
30.10.2017 06:10 1,7 C 1,7 C 1,8 C 90 % 1022,1 hPa 0,0 l/m 0,0 km/h (0 Bft) N 0 0 min 0,000 mm 0 W/m 0,2 C 1,7 C 0,0 km/h (0 Bft) 100 %
30.10.2017 06:20 1,7 C 1,7 C 1,7 C 90 % 1022,3 hPa 0,0 l/m 0,0 km/h (0 Bft) S-SO 157 0 min 0,000 mm 0 W/m 0,2 C 1,7 C 1,6 km/h (1 Bft) 100 %
30.10.2017 06:30 1,8 C 1,7 C 1,8 C 90 % 1022,4 hPa 0,0 l/m 0,0 km/h (0 Bft) N 0 0 min 0,000 mm 0 W/m 0,3 C 1,8 C 0,0 km/h (0 Bft) 100 %
30.10.2017 06:40 1,9 C 1,8 C 1,9 C 90 % 1022,6 hPa 0,0 l/m 0,0 km/h (0 Bft) N 0 0 min 0,000 mm 0 W/m 0,4 C 1,9 C 0,0 km/h (0 Bft) 100 %
30.10.2017 06:50 2,1 C 1,9 C 2,1 C 90 % 1022,6 hPa 0,0 l/m 0,0 km/h (0 Bft) N 0 0 min 0,000 mm 0 W/m 0,6 C 2,1 C 0,0 km/h (0 Bft) 100 %
30.10.2017 07:00 1,9 C 1,9 C 2,1 C 90 % 1022,8 hPa 0,0 l/m 0,0 km/h (0 Bft) N 0 0 min 0,000 mm 0 W/m 0,4 C 1,9 C 0,0 km/h (0 Bft) 100 %
30.10.2017 07:10 1,9 C 1,9 C 1,9 C 90 % 1022,8 hPa 0,0 l/m 0,0 km/h (0 Bft) N 0 0 min 0,000 mm 0 W/m 0,4 C 1,9 C 0,0 km/h (0 Bft) 100 %
30.10.2017 07:20 1,9 C 1,9 C 1,9 C 90 % 1022,9 hPa 0,0 l/m 0,0 km/h (0 Bft) N 0 0 min 0,000 mm 7 W/m 0,4 C 1,9 C 0,0 km/h (0 Bft) 100 %
30.10.2017 07:30 2,0 C 1,9 C 2,0 C 90 % 1023,0 hPa 0,0 l/m 0,0 km/h (0 Bft) N 0 0 min 0,000 mm 12 W/m 0,5 C 2,0 C 0,0 km/h (0 Bft) 99 %
30.10.2017 07:40 2,0 C 2,0 C 2,1 C 90 % 1023,1 hPa 0,0 l/m 0,0 km/h (0 Bft) S-SO 157 0 min 0,000 mm 18 W/m 0,5 C 2,0 C 1,6 km/h (1 Bft) 99 %
30.10.2017 07:50 2,1 C 2,0 C 2,1 C 90 % 1023,3 hPa 0,0 l/m 0,0 km/h (0 Bft) SW 225 0 min 0,000 mm 26 W/m 0,6 C 2,1 C 4,8 km/h (1 Bft) 99 %
30.10.2017 08:00 2,2 C 2,1 C 2,2 C 90 % 1023,3 hPa 0,0 l/m 0,0 km/h (0 Bft) N 0 0 min 0,000 mm 32 W/m 0,7 C 2,2 C 0,0 km/h (0 Bft) 99 %
30.10.2017 08:10 2,2 C 2,2 C 2,2 C 90 % 1023,5 hPa 0,0 l/m 0,0 km/h (0 Bft) SW 225 0 min 0,000 mm 44 W/m 0,7 C 2,2 C 3,2 km/h (1 Bft) 100 %
30.10.2017 08:20 2,6 C 2,2 C 2,6 C 90 % 1023,6 hPa 0,0 l/m 0,0 km/h (0 Bft) SW 225 0 min 0,000 mm 123 W/m 1,1 C 2,6 C 1,6 km/h (1 Bft) 99 %
30.10.2017 08:30 3,4 C 2,6 C 3,4 C 91 % 1023,7 hPa 0,0 l/m 0,0 km/h (0 Bft) N 0 0 min 0,000 mm 148 W/m 2,1 C 3,4 C 0,0 km/h (0 Bft) 100 %
30.10.2017 08:40 4,0 C 3,4 C 4,0 C 91 % 1023,8 hPa 0,0 l/m 0,0 km/h (0 Bft) N 0 10 min 0,000 mm 172 W/m 2,7 C 4,0 C 0,0 km/h (0 Bft) 100 %
30.10.2017 08:50 3,9 C 3,9 C 4,0 C 90 % 1023,9 hPa 0,0 l/m 0,0 km/h (0 Bft) SW 225 0 min 0,000 mm 135 W/m 2,4 C 3,9 C 4,8 km/h (1 Bft) 99 %
30.10.2017 09:00 4,2 C 3,9 C 4,2 C 90 % 1023,9 hPa 0,0 l/m 0,0 km/h (0 Bft) N 0 10 min 0,051 mm 188 W/m 2,7 C 4,2 C 0,0 km/h (0 Bft) 99 %
30.10.2017 09:10 4,8 C 4,2 C 4,8 C 90 % 1024,0 hPa 0,0 l/m 0,0 km/h (0 Bft) W-SW 247 10 min 0,000 mm 200 W/m 3,3 C 4,8 C 8,0 km/h (2 Bft) 98 %
30.10.2017 09:20 5,2 C 4,8 C 5,2 C 90 % 1024,0 hPa 0,0 l/m 1,6 km/h (1 Bft) W-NW 292 10 min 0,000 mm 202 W/m 3,7 C 5,2 C 6,4 km/h (2 Bft) 94 %
30.10.2017 09:30 5,3 C 5,2 C 5,3 C 90 % 1024,0 hPa 0,0 l/m 4,8 km/h (1 Bft) NW 315 0 min 0,000 mm 132 W/m 3,8 C 5,3 C 9,7 km/h (2 Bft) 93 %
30.10.2017 09:40 5,5 C 5,3 C 5,5 C 90 % 1024,0 hPa 0,0 l/m 4,8 km/h (1 Bft) NW 315 10 min 0,000 mm 179 W/m 4,0 C 5,5 C 16,1 km/h (3 Bft) 98 %
30.10.2017 09:50 5,7 C 5,5 C 5,7 C 90 % 1024,1 hPa 0,0 l/m 6,4 km/h (2 Bft) NW 315 10 min 0,000 mm 174 W/m 4,2 C 5,7 C 17,7 km/h (3 Bft) 97 %
30.10.2017 10:00 6,2 C 5,7 C 6,2 C 90 % 1024,2 hPa 0,0 l/m 6,4 km/h (2 Bft) NW 315 10 min 0,076 mm 422 W/m 4,7 C 6,2 C 17,7 km/h (3 Bft) 98 %
30.10.2017 10:10 7,2 C 6,3 C 7,2 C 88 % 1024,2 hPa 0,0 l/m 4,8 km/h (1 Bft) NW 315 10 min 0,000 mm 469 W/m 5,3 C 7,2 C 16,1 km/h (3 Bft) 98 %
30.10.2017 10:20 7,2 C 7,1 C 7,2 C 86 % 1024,5 hPa 0,0 l/m 6,4 km/h (2 Bft) W-NW 292 10 min 0,000 mm 248 W/m 5,0 C 7,2 C 16,1 km/h (3 Bft) 97 %
30.10.2017 10:30 7,3 C 7,2 C 7,3 C 85 % 1024,4 hPa 0,0 l/m 6,4 km/h (2 Bft) NW 315 10 min 0,000 mm 265 W/m 4,9 C 7,3 C 16,1 km/h (3 Bft) 97 %
30.10.2017 10:40 7,6 C 7,3 C 7,6 C 85 % 1024,5 hPa 0,0 l/m 4,8 km/h (1 Bft) W-NW 292 10 min 0,000 mm 413 W/m 5,2 C 7,6 C 9,7 km/h (2 Bft) 98 %
30.10.2017 10:50 7,9 C 7,6 C 7,9 C 83 % 1024,7 hPa 0,0 l/m 8,0 km/h (2 Bft) NW 315 10 min 0,000 mm 476 W/m 5,2 C 6,6 C 19,3 km/h (3 Bft) 98 %
30.10.2017 11:00 8,7 C 7,9 C 8,7 C 80 % 1024,8 hPa 0,0 l/m 9,7 km/h (2 Bft) W-NW 292 10 min 0,127 mm 647 W/m 5,4 C 6,3 C 22,5 km/h (4 Bft) 98 %
30.10.2017 11:10 8,9 C 8,7 C 8,9 C 78 % 1024,8 hPa 0,0 l/m 11,3 km/h (2 Bft) NW 315 10 min 0,000 mm 381 W/m 5,3 C 5,6 C 22,5 km/h (4 Bft) 97 %
30.10.2017 11:20 8,8 C 8,7 C 8,9 C 79 % 1024,8 hPa 0,0 l/m 8,0 km/h (2 Bft) NW 315 10 min 0,000 mm 615 W/m 5,4 C 7,6 C 19,3 km/h (3 Bft) 98 %
30.10.2017 11:30 9,4 C 8,8 C 9,4 C 76 % 1024,8 hPa 0,0 l/m 6,4 km/h (2 Bft) W-NW 292 10 min 0,000 mm 504 W/m 5,4 C 9,4 C 14,5 km/h (3 Bft) 97 %
30.10.2017 11:40 9,6 C 9,4 C 9,6 C 77 % 1024,8 hPa 0,0 l/m 8,0 km/h (2 Bft) W-NW 292 10 min 0,000 mm 573 W/m 5,8 C 8,4 C 19,3 km/h (3 Bft) 98 %
30.10.2017 11:50 10,1 C 9,6 C 10,1 C 72 % 1024,6 hPa 0,0 l/m 8,0 km/h (2 Bft) NW 315 10 min 0,000 mm 613 W/m 5,3 C 9,0 C 17,7 km/h (3 Bft) 97 %
30.10.2017 12:00 10,4 C 10,1 C 10,4 C 71 % 1024,6 hPa 0,0 l/m 11,3 km/h (2 Bft) NW 315 10 min 0,203 mm 664 W/m 5,4 C 7,3 C 20,9 km/h (4 Bft) 98 %
30.10.2017 12:10 10,2 C 10,2 C 10,4 C 71 % 1024,6 hPa 0,0 l/m 8,0 km/h (2 Bft) NW 315 10 min 0,000 mm 385 W/m 5,2 C 9,1 C 22,5 km/h (4 Bft) 98 %
30.10.2017 12:30 10,4 C 10,2 C 10,4 C 70 % 1024,6 hPa 0,0 l/m 9,1 km/h (2 Bft) NW 310 20 min 0,000 mm 520 W/m 5,2 C 8,6 C 24,1 km/h (4 Bft) 100 %
30.10.2017 12:40 10,2 C 10,2 C 10,5 C 68 % 1024,6 hPa 0,0 l/m 11,8 km/h (2 Bft) NW 309 10 min 0,000 mm 227 W/m 4,6 C 6,8 C 24,1 km/h (4 Bft) 100 %
30.10.2017 12:50 10,0 C 10,0 C 10,2 C 69 % 1024,6 hPa 0,0 l/m 11,7 km/h (2 Bft) NW 308 10 min 0,000 mm 186 W/m 4,6 C 6,7 C 24,1 km/h (4 Bft) 99 %
30.10.2017 13:00 10,0 C 10,0 C 10,0 C 70 % 1024,6 hPa 0,0 l/m 8,1 km/h (2 Bft) NW 304 0 min 0,153 mm 149 W/m 4,8 C 8,8 C 16,1 km/h (3 Bft) 99 %
30.10.2017 13:10 10,1 C 10,0 C 10,1 C 70 % 1024,8 hPa 0,0 l/m 9,7 km/h (2 Bft) NW 309 10 min 0,000 mm 345 W/m 4,9 C 7,9 C 19,3 km/h (3 Bft) 99 %
30.10.2017 13:20 10,1 C 10,1 C 10,1 C 69 % 1024,8 hPa 0,0 l/m 7,8 km/h (2 Bft) N-NW 331 10 min 0,000 mm 214 W/m 4,7 C 9,1 C 16,1 km/h (3 Bft) 98 %
30.10.2017 13:30 10,2 C 10,1 C 10,2 C 68 % 1024,9 hPa 0,0 l/m 9,0 km/h (2 Bft) N-NW 331 10 min 0,000 mm 301 W/m 4,6 C 8,4 C 17,7 km/h (3 Bft) 97 %
30.10.2017 13:40 10,4 C 10,2 C 10,4 C 68 % 1024,9 hPa 0,0 l/m 8,9 km/h (2 Bft) NW 311 10 min 0,000 mm 529 W/m 4,8 C 8,7 C 20,9 km/h (4 Bft) 98 %
30.10.2017 13:50 10,4 C 10,4 C 10,6 C 67 % 1024,9 hPa 0,0 l/m 8,9 km/h (2 Bft) W-NW 299 0 min 0,000 mm 111 W/m 4,5 C 8,7 C 19,3 km/h (3 Bft) 97 %
30.10.2017 14:00 9,8 C 9,8 C 10,4 C 68 % 1025,0 hPa 0,0 l/m 9,4 km/h (2 Bft) NW 313 0 min 0,000 mm 70 W/m 4,2 C 7,7 C 17,7 km/h (3 Bft) 97 %
30.10.2017 14:10 9,3 C 9,3 C 9,8 C 70 % 1025,1 hPa 0,0 l/m 6,0 km/h (2 Bft) NW 312 0 min 0,127 mm 146 W/m 4,1 C 9,3 C 14,5 km/h (3 Bft) 97 %
30.10.2017 14:20 9,2 C 9,2 C 9,3 C 72 % 1025,2 hPa 0,0 l/m 7,6 km/h (2 Bft) NW 319 10 min 0,000 mm 153 W/m 4,4 C 8,3 C 16,1 km/h (3 Bft) 97 %
30.10.2017 14:30 9,1 C 9,1 C 9,2 C 70 % 1025,2 hPa 0,0 l/m 7,9 km/h (2 Bft) NW 318 0 min 0,000 mm 81 W/m 3,9 C 8,0 C 17,7 km/h (3 Bft) 97 %
30.10.2017 14:40 9,3 C 9,1 C 9,3 C 71 % 1025,2 hPa 0,0 l/m 6,8 km/h (2 Bft) NW 316 0 min 0,000 mm 77 W/m 4,3 C 9,0 C 16,1 km/h (3 Bft) 97 %
30.10.2017 14:50 9,3 C 9,3 C 9,4 C 70 % 1025,3 hPa 0,0 l/m 8,3 km/h (2 Bft) NW 307 0 min 0,000 mm 58 W/m 4,1 C 7,9 C 19,3 km/h (3 Bft) 98 %
30.10.2017 15:00 9,3 C 9,3 C 9,3 C 70 % 1025,4 hPa 0,0 l/m 9,2 km/h (2 Bft) NW 311 0 min 0,000 mm 65 W/m 4,1 C 7,3 C 19,3 km/h (3 Bft) 98 %
30.10.2017 15:10 9,3 C 9,3 C 9,3 C 70 % 1025,3 hPa 0,0 l/m 6,5 km/h (2 Bft) W-NW 298 0 min 0,076 mm 90 W/m 4,1 C 9,3 C 14,5 km/h (3 Bft) 98 %
30.10.2017 15:20 9,3 C 9,3 C 9,4 C 67 % 1025,4 hPa 0,0 l/m 8,4 km/h (2 Bft) NW 321 0 min 0,000 mm 49 W/m 3,5 C 7,8 C 19,3 km/h (3 Bft) 97 %
30.10.2017 15:30 9,1 C 9,1 C 9,3 C 68 % 1025,5 hPa 0,0 l/m 6,9 km/h (2 Bft) W-NW 288 0 min 0,000 mm 60 W/m 3,5 C 8,7 C 17,7 km/h (3 Bft) 97 %
30.10.2017 15:40 8,9 C 8,9 C 9,1 C 71 % 1025,6 hPa 0,0 l/m 4,5 km/h (1 Bft) NW 324 0 min 0,000 mm 51 W/m 3,9 C 8,9 C 9,7 km/h (2 Bft) 97 %
30.10.2017 15:50 8,7 C 8,7 C 8,9 C 71 % 1025,6 hPa 0,0 l/m 6,3 km/h (2 Bft) NW 315 0 min 0,000 mm 47 W/m 3,7 C 8,7 C 12,9 km/h (3 Bft) 97 %
30.10.2017 16:00 8,4 C 8,4 C 8,7 C 72 % 1025,6 hPa 0,0 l/m 3,2 km/h (1 Bft) W-NW 300 0 min 0,051 mm 23 W/m 3,7 C 8,4 C 9,7 km/h (2 Bft) 98 %
30.10.2017 16:10 8,1 C 8,1 C 8,4 C 73 % 1025,7 hPa 0,0 l/m 3,9 km/h (1 Bft) W-NW 300 0 min 0,000 mm 18 W/m 3,6 C 8,1 C 11,3 km/h (2 Bft) 97 %
30.10.2017 16:20 7,8 C 7,8 C 8,1 C 74 % 1025,7 hPa 0,0 l/m 4,0 km/h (1 Bft) W-NW 299 0 min 0,000 mm 23 W/m 3,5 C 7,8 C 8,0 km/h (2 Bft) 97 %
30.10.2017 16:30 7,7 C 7,7 C 7,8 C 75 % 1025,8 hPa 0,0 l/m 2,3 km/h (1 Bft) W-NW 298 0 min 0,000 mm 28 W/m 3,6 C 7,7 C 6,4 km/h (2 Bft) 98 %
30.10.2017 16:40 7,6 C 7,6 C 7,7 C 75 % 1025,8 hPa 0,0 l/m 3,2 km/h (1 Bft) W-NW 300 0 min 0,000 mm 18 W/m 3,5 C 7,6 C 8,0 km/h (2 Bft) 97 %
30.10.2017 16:50 7,5 C 7,5 C 7,6 C 75 % 1025,9 hPa 0,0 l/m 2,1 km/h (1 Bft) W-NW 298 0 min 0,000 mm 9 W/m 3,4 C 7,5 C 6,4 km/h (2 Bft) 98 %
30.10.2017 17:00 7,4 C 7,4 C 7,5 C 76 % 1025,8 hPa 0,0 l/m 1,7 km/h (1 Bft) W-NW 298 0 min 0,000 mm 0 W/m 3,5 C 7,4 C 4,8 km/h (1 Bft) 97 %
30.10.2017 17:10 7,3 C 7,3 C 7,4 C 77 % 1025,9 hPa 0,0 l/m 1,2 km/h (1 Bft) W-NW 298 0 min 0,025 mm 0 W/m 3,5 C 7,3 C 4,8 km/h (1 Bft) 98 %
30.10.2017 17:20 7,3 C 7,2 C 7,3 C 78 % 1026,1 hPa 0,0 l/m 2,2 km/h (1 Bft) W-NW 298 0 min 0,000 mm 0 W/m 3,7 C 7,3 C 4,8 km/h (1 Bft) 97 %
30.10.2017 17:30 7,2 C 7,2 C 7,3 C 79 % 1026,3 hPa 0,0 l/m 2,2 km/h (1 Bft) W-NW 298 0 min 0,000 mm 0 W/m 3,8 C 7,2 C 6,4 km/h (2 Bft) 97 %
30.10.2017 17:40 7,2 C 7,2 C 7,2 C 78 % 1026,5 hPa 0,0 l/m 2,7 km/h (1 Bft) W 267 0 min 0,000 mm 0 W/m 3,6 C 7,2 C 8,0 km/h (2 Bft) 99 %
30.10.2017 17:50 7,2 C 7,2 C 7,2 C 79 % 1026,6 hPa 0,0 l/m 2,7 km/h (1 Bft) W-NW 296 0 min 0,000 mm 0 W/m 3,8 C 7,2 C 6,4 km/h (2 Bft) 99 %
30.10.2017 18:00 7,1 C 7,1 C 7,2 C 79 % 1026,7 hPa 0,0 l/m 2,6 km/h (1 Bft) W-NW 296 0 min 0,000 mm 0 W/m 3,7 C 7,1 C 6,4 km/h (2 Bft) 100 %
30.10.2017 18:10 6,9 C 6,9 C 7,1 C 79 % 1026,7 hPa 0,0 l/m 0,0 km/h (0 Bft) W-NW 296 0 min 0,000 mm 0 W/m 3,5 C 6,9 C 4,8 km/h (1 Bft) 100 %
30.10.2017 18:20 6,8 C 6,8 C 6,9 C 80 % 1026,9 hPa 0,0 l/m 1,9 km/h (1 Bft) W-NW 295 0 min 0,000 mm 0 W/m 3,6 C 6,8 C 6,4 km/h (2 Bft) 100 %
30.10.2017 18:30 6,7 C 6,7 C 6,8 C 80 % 1027,1 hPa 0,0 l/m 0,0 km/h (0 Bft) W-NW 295 0 min 0,000 mm 0 W/m 3,5 C 6,7 C 1,6 km/h (1 Bft) 100 %
30.10.2017 18:40 6,6 C 6,6 C 6,7 C 81 % 1027,1 hPa 0,0 l/m 0,0 km/h (0 Bft) W-NW 295 0 min 0,000 mm 0 W/m 3,6 C 6,6 C 0,0 km/h (0 Bft) 100 %
30.10.2017 18:50 6,6 C 6,6 C 6,6 C 81 % 1027,2 hPa 0,0 l/m 0,0 km/h (0 Bft) W-NW 295 0 min 0,000 mm 0 W/m 3,6 C 6,6 C 0,0 km/h (0 Bft) 100 %
30.10.2017 19:00 6,4 C 6,4 C 6,6 C 81 % 1027,2 hPa 0,0 l/m 0,0 km/h (0 Bft) W-NW 295 0 min 0,000 mm 0 W/m 3,4 C 6,4 C 0,0 km/h (0 Bft) 100 %
30.10.2017 19:10 6,3 C 6,3 C 6,4 C 82 % 1027,3 hPa 0,0 l/m 0,0 km/h (0 Bft) W-NW 295 0 min 0,000 mm 0 W/m 3,5 C 6,3 C 0,0 km/h (0 Bft) 100 %
30.10.2017 19:20 6,3 C 6,3 C 6,3 C 83 % 1027,3 hPa 0,0 l/m 0,0 km/h (0 Bft) W-NW 295 0 min 0,000 mm 0 W/m 3,6 C 6,3 C 0,0 km/h (0 Bft) 99 %
30.10.2017 19:30 6,2 C 6,2 C 6,3 C 83 % 1027,3 hPa 0,0 l/m 0,0 km/h (0 Bft) W-NW 295 0 min 0,000 mm 0 W/m 3,5 C 6,2 C 0,0 km/h (0 Bft) 100 %
30.10.2017 19:40 6,1 C 6,1 C 6,2 C 85 % 1027,3 hPa 0,0 l/m 0,0 km/h (0 Bft) W-NW 295 0 min 0,000 mm 0 W/m 3,8 C 6,1 C 0,0 km/h (0 Bft) 100 %
30.10.2017 19:50 6,1 C 6,1 C 6,1 C 85 % 1027,3 hPa 0,0 l/m 0,0 km/h (0 Bft) W-NW 295 0 min 0,000 mm 0 W/m 3,8 C 6,1 C 0,0 km/h (0 Bft) 100 %
30.10.2017 20:00 6,0 C 6,0 C 6,1 C 86 % 1027,4 hPa 0,0 l/m 0,0 km/h (0 Bft) W-NW 295 0 min 0,000 mm 0 W/m 3,8 C 6,0 C 0,0 km/h (0 Bft) 100 %
30.10.2017 20:10 5,9 C 5,9 C 6,0 C 86 % 1027,4 hPa 0,0 l/m 0,0 km/h (0 Bft) W-NW 295 0 min 0,000 mm 0 W/m 3,7 C 5,9 C 0,0 km/h (0 Bft) 100 %
30.10.2017 20:20 5,9 C 5,9 C 5,9 C 87 % 1027,5 hPa 0,0 l/m 0,0 km/h (0 Bft) W-NW 295 0 min 0,000 mm 0 W/m 3,9 C 5,9 C 0,0 km/h (0 Bft) 100 %
30.10.2017 20:30 5,9 C 5,9 C 5,9 C 86 % 1027,7 hPa 0,0 l/m 0,0 km/h (0 Bft) W-NW 295 0 min 0,000 mm 0 W/m 3,7 C 5,9 C 0,0 km/h (0 Bft) 100 %
30.10.2017 20:40 5,9 C 5,9 C 5,9 C 86 % 1027,7 hPa 0,0 l/m 0,0 km/h (0 Bft) W-NW 295 0 min 0,000 mm 0 W/m 3,7 C 5,9 C 0,0 km/h (0 Bft) 100 %
30.10.2017 20:50 5,9 C 5,9 C 5,9 C 86 % 1027,7 hPa 0,0 l/m 0,0 km/h (0 Bft) W-NW 295 0 min 0,000 mm 0 W/m 3,7 C 5,9 C 0,0 km/h (0 Bft) 100 %
30.10.2017 21:00 5,9 C 5,9 C 6,0 C 86 % 1027,6 hPa 0,0 l/m 0,0 km/h (0 Bft) W-NW 295 0 min 0,000 mm 0 W/m 3,7 C 5,9 C 0,0 km/h (0 Bft) 99 %
30.10.2017 21:10 5,9 C 5,9 C 6,0 C 86 % 1027,6 hPa 0,0 l/m 0,0 km/h (0 Bft) N 0 0 min 0,000 mm 0 W/m 3,7 C 5,9 C 0,0 km/h (0 Bft) 100 %
30.10.2017 21:20 5,9 C 5,9 C 5,9 C 86 % 1027,5 hPa 0,0 l/m 0,0 km/h (0 Bft) N 0 0 min 0,000 mm 0 W/m 3,7 C 5,9 C 0,0 km/h (0 Bft) 100 %
30.10.2017 21:30 5,9 C 5,9 C 5,9 C 85 % 1027,5 hPa 0,0 l/m 0,0 km/h (0 Bft) N 0 0 min 0,000 mm 0 W/m 3,6 C 5,9 C 0,0 km/h (0 Bft) 100 %
30.10.2017 21:40 5,8 C 5,8 C 5,9 C 86 % 1027,6 hPa 0,0 l/m 0,0 km/h (0 Bft) W-NW 292 0 min 0,000 mm 0 W/m 3,6 C 5,8 C 1,6 km/h (1 Bft) 100 %
30.10.2017 21:50 5,7 C 5,7 C 5,8 C 85 % 1027,5 hPa 0,0 l/m 0,0 km/h (0 Bft) N 0 0 min 0,000 mm 0 W/m 3,4 C 5,7 C 0,0 km/h (0 Bft) 100 %
30.10.2017 22:00 5,5 C 5,5 C 5,7 C 86 % 1027,7 hPa 0,0 l/m 0,0 km/h (0 Bft) N 0 0 min 0,000 mm 0 W/m 3,3 C 5,5 C 0,0 km/h (0 Bft) 100 %
30.10.2017 22:10 5,2 C 5,2 C 5,5 C 86 % 1027,7 hPa 0,0 l/m 0,0 km/h (0 Bft) W-NW 292 0 min 0,000 mm 0 W/m 3,1 C 5,2 C 1,6 km/h (1 Bft) 100 %
30.10.2017 22:20 5,0 C 5,0 C 5,2 C 87 % 1027,8 hPa 0,0 l/m 0,0 km/h (0 Bft) W-NW 292 0 min 0,000 mm 0 W/m 3,0 C 5,0 C 3,2 km/h (1 Bft) 100 %
30.10.2017 22:30 4,9 C 4,9 C 5,0 C 88 % 1027,7 hPa 0,0 l/m 0,0 km/h (0 Bft) N 0 0 min 0,000 mm 0 W/m 3,1 C 4,9 C 0,0 km/h (0 Bft) 100 %
30.10.2017 22:40 4,8 C 4,8 C 4,9 C 88 % 1027,7 hPa 0,0 l/m 0,0 km/h (0 Bft) N 0 0 min 0,000 mm 0 W/m 3,0 C 4,8 C 0,0 km/h (0 Bft) 100 %
30.10.2017 22:50 4,7 C 4,7 C 4,8 C 88 % 1027,6 hPa 0,0 l/m 0,0 km/h (0 Bft) N 0 0 min 0,000 mm 0 W/m 2,9 C 4,7 C 0,0 km/h (0 Bft) 100 %
30.10.2017 23:00 4,4 C 4,4 C 4,7 C 88 % 1027,6 hPa 0,0 l/m 0,0 km/h (0 Bft) N 0 0 min 0,000 mm 0 W/m 2,6 C 4,4 C 0,0 km/h (0 Bft) 100 %
30.10.2017 23:10 4,2 C 4,2 C 4,4 C 88 % 1027,6 hPa 0,0 l/m 0,0 km/h (0 Bft) N 0 0 min 0,000 mm 0 W/m 2,4 C 4,2 C 0,0 km/h (0 Bft) 100 %
30.10.2017 23:20 3,9 C 3,9 C 4,2 C 89 % 1027,6 hPa 0,0 l/m 0,0 km/h (0 Bft) N 0 0 min 0,000 mm 0 W/m 2,3 C 3,9 C 0,0 km/h (0 Bft) 100 %
30.10.2017 23:30 3,8 C 3,8 C 3,9 C 89 % 1027,6 hPa 0,0 l/m 0,0 km/h (0 Bft) W-NW 292 0 min 0,000 mm 0 W/m 2,2 C 3,8 C 1,6 km/h (1 Bft) 100 %
30.10.2017 23:40 3,7 C 3,7 C 3,8 C 90 % 1027,6 hPa 0,0 l/m 0,0 km/h (0 Bft) N 0 0 min 0,000 mm 0 W/m 2,2 C 3,7 C 0,0 km/h (0 Bft) 100 %
30.10.2017 23:50 3,6 C 3,6 C 3,7 C 90 % 1027,7 hPa 0,0 l/m 0,0 km/h (0 Bft) N 0 0 min 0,000 mm 0 W/m 2,1 C 3,6 C 0,0 km/h (0 Bft) 100 %
_ Min-Zeit 05:20 05:20 06:20 13:50 00:00 - 00:00 - - - - - 05:20 05:20 00:00 09:30
Minimum _ 1,7 C 1,7 C 1,7 C 67 % 1019,8 hPa - 0,0 km/h (0 Bft) - - - - - 0,2 C 1,7 C 0,0 km/h (0 Bft) 93 %
_ Max-Zeit 13:50 13:50 13:50 08:30 22:20 00:00 12:40 - - 12:30 12:00 12:00 11:40 11:30 12:30 00:00
Maximum _ 10,6 C 10,4 C 10,6 C 91 % 1027,8 hPa 0,0 l/m 11,8 km/h
NW (2 Bft)
- - 20 min 0,203 mm 664 W/m 5,8 C 9,4 C 24,1 km/h
W-NW (4 Bft)
100 %
Durchschnitt _ 5,5 C 5,5 C 5,6 C 84 % 1024,3 hPa #0,0 l/m 2,3 km/h (1 Bft) NW - #4:50 h #0,889 mm 213 W/m 2,9 C 5,2 C 5,7 km/h (1 Bft) 99 %
PRIVATE WETTERSTATION BILLIGHEIM-ALLFELD - www.neckar-odenwald-wetter.de - Holger Sonntag